CW7448 Weather Reports


Display with metric or nautical units.
time (UTC)temp
F
wind
direction
speed
MPH
gust
MPH
rain 1hr
in
rain 24hr
in
rain mn
in
humidity
%
barometer
mb
20260506182504 59 261 3.0 10.0 0.01 0.01 0.01 89 1008.5
20260506182004 60 294 3.0 10.0 0.01 0.01 0.01 88 1008.6
20260506181504 60 326 3.0 10.0 0.01 0.01 0.01 87 1008.7
20260506181004 60 346 2.0 8.0 0.00 0.00 0.00 87 1008.8
20260506180504 60 360 1.0 8.0 0.00 0.00 0.00 86 1008.8
20260506180011 61 317 2.0 11.0 0.00 0.00 0.00 84 1008.7
20260506175504 61 343 4.0 11.0 0.00 0.00 0.00 83 1008.8
20260506175004 62 329 5.0 18.0 0.00 0.00 0.00 81 1008.9
20260506174510 62 10 3.0 18.0 0.00 0.00 0.00 80 1008.9
20260506174004 62 61 4.0 12.0 0.00 0.00 0.00 79 1009.0
20260506173504 63 333 4.0 12.0 0.00 0.00 0.00 78 1009.0
20260506173008 63 360 5.0 15.0 0.00 0.00 0.00 77 1009.2
20260506172502 64 184 4.0 15.0 0.00 0.00 0.00 76 1009.1
20260506172002 64 54 5.0 10.0 0.00 0.00 0.00 76 1009.1
20260506171507 65 24 2.0 12.0 0.00 0.00 0.00 75 1009.2
20260506171006 65 330 3.0 15.0 0.00 0.00 0.00 74 1009.2
20260506170504 65 316 3.0 15.0 0.00 0.00 0.00 74 1009.3
20260506170008 66 261 6.0 14.0 0.00 0.00 0.00 73 1009.3
20260506165505 66 325 5.0 14.0 0.00 0.00 0.00 73 1009.3
20260506165003 67 317 5.0 12.0 0.00 0.00 0.00 73 1009.2
20260506164509 67 253 3.0 11.0 0.00 0.00 0.00 73 1009.2
20260506164007 67 348 4.0 13.0 0.00 0.00 0.00 74 1009.1
20260506163504 67 321 4.0 13.0 0.00 0.00 0.00 73 1009.1
20260506163011 67 323 3.0 12.0 0.00 0.00 0.00 74 1009.2
20260506162505 67 298 4.0 12.0 0.00 0.00 0.00 71 1009.4
20260506162006 68 246 5.0 12.0 0.00 0.00 0.00 74 1009.4
20260506161512 67 261 3.0 17.0 0.00 0.00 0.00 73 1009.4
20260506161002 67 323 3.0 17.0 0.00 0.00 0.00 73 1009.6
20260506160502 68 53 5.0 17.0 0.00 0.00 0.00 71 1009.7
20260506160011 68 342 4.0 14.0 0.00 0.00 0.00 70 1009.6
20260506155503 68 325 4.0 14.0 0.00 0.00 0.00 69 1009.6
20260506155003 68 263 4.0 13.0 0.00 0.00 0.00 70 1009.6
20260506154510 68 213 4.0 17.0 0.00 0.00 0.00 69 1009.7
20260506154003 69 317 6.0 17.0 0.00 0.00 0.00 68 1009.7
20260506153503 69 264 2.0 10.0 0.00 0.00 0.00 71 1009.7
20260506153013 68 298 3.0 10.0 0.00 0.00 0.00 71 1009.7
20260506152504 68 311 3.0 15.0 0.00 0.00 0.00 70 1009.7
20260506152006 68 186 6.0 15.0 0.00 0.00 0.00 69 1009.9
20260506151513 69 270 3.0 12.0 0.00 0.00 0.00 69 1009.8
20260506151004 69 292 6.0 12.0 0.00 0.00 0.00 69 1009.9
20260506150506 69 340 4.0 12.0 0.00 0.00 0.00 70 1010.0
20260506150012 69 327 3.0 11.0 0.00 0.00 0.00 71 1010.0
20260506145506 69 276 3.0 10.0 0.00 0.00 0.00 69 1010.0
20260506145006 69 323 3.0 14.0 0.00 0.00 0.00 70 1010.0
20260506144515 69 13 4.0 14.0 0.00 0.00 0.00 70 1009.9
20260506144004 68 211 2.0 13.0 0.00 0.00 0.00 73 1010.0
20260506143504 67 260 5.0 13.0 0.00 0.00 0.00 71 1010.0
20260506143026 67 351 5.0 16.0 0.00 0.00 0.00 74 1010.1
20260506142506 67 344 8.0 18.0 0.00 0.00 0.00 71 1010.1
20260506142003 67 352 4.0 18.0 0.00 0.00 0.00 73 1010.2
20260506141514 66 13 5.0 12.0 0.00 0.00 0.00 74 1010.1
20260506141006 66 28 3.0 9.0 0.00 0.00 0.00 75 1010.0
20260506140506 66 308 3.0 10.0 0.00 0.00 0.00 73 1010.0
20260506140015 66 234 3.0 10.0 0.00 0.00 0.00 74 1010.0
20260506135505 66 331 3.0 14.0 0.00 0.00 0.00 74 1009.9
20260506135007 66 107 4.0 14.0 0.00 0.00 0.00 74 1009.9
20260506134516 66 310 6.0 12.0 0.00 0.00 0.00 74 1009.9
20260506134008 66 327 4.0 11.0 0.00 0.00 0.00 74 1010.0
20260506133505 65 352 3.0 11.0 0.00 0.00 0.00 75 1010.0
20260506133020 65 280 3.0 11.0 0.00 0.00 0.00 74 1009.9
20260506132505 66 190 3.0 10.0 0.00 0.00 0.00 75 1010.0
20260506132008 66 292 3.0 13.0 0.00 0.00 0.00 74 1010.1
20260506131504 66 80 4.0 13.0 0.00 0.00 0.00 74 1010.0
20260506131007 66 18 4.0 11.0 0.00 0.00 0.00 75 1010.1
20260506130505 66 315 5.0 10.0 0.00 0.00 0.00 77 1010.1
20260506130019 65 259 4.0 14.0 0.00 0.00 0.00 77 1010.2
20260506125503 65 24 3.0 14.0 0.00 0.00 0.00 77 1010.3
20260506125005 65 315 3.0 12.0 0.00 0.00 0.00 79 1010.3
20260506124503 64 325 3.0 10.0 0.00 0.00 0.00 80 1010.3
20260506124003 63 285 3.0 9.0 0.00 0.00 0.00 82 1010.3
20260506123503 62 48 1.0 10.0 0.00 0.00 0.00 83 1010.2
20260506123008 62 205 1.0 11.0 0.00 0.00 0.00 84 1010.4
20260506122503 61 333 3.0 11.0 0.00 0.00 0.00 83 1010.3
20260506122002 61 10 3.0 8.0 0.00 0.00 0.00 85 1010.5
20260506121520 61 352 2.0 9.0 0.00 0.00 0.00 84 1010.5
20260506121004 61 5 4.0 9.0 0.00 0.00 0.00 84 1010.5
20260506120504 61 223 3.0 8.0 0.00 0.00 0.00 85 1010.6
20260506120008 60 333 2.0 9.0 0.00 0.00 0.00 86 1010.6
20260506115505 60 46 3.0 9.0 0.00 0.00 0.00 86 1010.7
20260506115005 59 20 4.0 10.0 0.00 0.00 0.00 86 1010.5
20260506114522 59 313 3.0 10.0 0.00 0.00 0.00 87 1010.6
20260506114008 59 312 1.0 4.0 0.00 0.00 0.00 88 1010.8
20260506113506 59 32 2.0 8.0 0.00 0.00 0.00 89 1010.8
20260506113028 58 332 2.0 8.0 0.00 0.00 0.00 89 1010.9
20260506112506 58 199 3.0 7.0 0.00 0.00 0.00 90 1010.8
20260506112008 57 198 1.0 5.0 0.00 0.00 0.00 90 1010.9
20260506111508 57 275 0.0 9.0 0.00 0.00 0.00 89 1010.8
20260506111008 57 343 2.0 9.0 0.00 0.00 0.00 90 1011.0
20260506110503 57 282 0.0 9.0 0.00 0.00 0.00 90 1011.0
20260506110016 57 277 2.0 6.0 0.00 0.00 0.00 91 1011.0
20260506105506 56 298 2.0 6.0 0.00 0.00 0.00 91 1010.9
20260506105005 56 5 1.0 8.0 0.00 0.00 0.00 91 1010.8
20260506104513 56 74 1.0 8.0 0.00 0.00 0.00 91 1010.8
20260506104006 56 263 2.0 8.0 0.00 0.00 0.00 91 1010.8
20260506103507 56 201 1.0 5.0 0.00 0.00 0.00 91 1010.9
20260506103011 56 314 1.0 5.0 0.00 0.00 0.00 91 1010.8
20260506102507 56 207 1.0 8.0 0.00 0.00 0.00 91 1010.7
20260506102008 56 23 0.0 8.0 0.00 0.00 0.00 91 1010.8
20260506101526 56 338 2.0 6.0 0.00 0.00 0.00 91 1010.6
20260506101006 56 279 1.0 6.0 0.00 0.00 0.00 90 1010.6
20260506100505 56 340 1.0 7.0 0.00 0.00 0.00 90 1010.6
20260506100011 56 352 1.0 7.0 0.00 0.00 0.00 90 1010.6
20260506095505 56 343 2.0 7.0 0.00 0.00 0.00 90 1010.6
20260506095004 56 324 2.0 5.0 0.00 0.00 0.00 90 1010.6
20260506094520 55 321 2.0 6.0 0.00 0.00 0.00 90 1010.6
20260506094005 55 55 2.0 6.0 0.00 0.00 0.00 90 1010.6
20260506093502 56 115 0.0 3.0 0.00 0.00 0.00 90 1010.6
20260506093019 56 360 1.0 4.0 0.00 0.00 0.00 90 1010.6
20260506092507 56 352 1.0 4.0 0.00 0.00 0.00 89 1010.6
20260506092007 56 288 1.0 5.0 0.00 0.00 0.00 89 1010.6
20260506091517 56 309 1.0 8.0 0.00 0.00 0.00 89 1010.6
20260506091008 56 245 1.0 8.0 0.00 0.00 0.00 89 1010.6
20260506090508 56 336 1.0 6.0 0.00 0.00 0.00 89 1010.8
20260506090041 56 342 1.0 6.0 0.00 0.00 0.00 89 1010.8
20260506085511 56 49 1.0 4.0 0.00 0.00 0.00 89 1010.8
20260506085008 56 37 1.0 6.0 0.00 0.00 0.00 89 1010.8
20260506084514 56 80 2.0 10.0 0.00 0.00 0.00 89 1010.8
20260506084003 56 298 2.0 10.0 0.00 0.00 0.00 88 1010.8
20260506083505 56 352 1.0 4.0 0.00 0.00 0.00 88 1010.7
20260506083017 57 294 1.0 5.0 0.00 0.00 0.00 88 1010.8
20260506082505 57 284 2.0 5.0 0.00 0.00 0.00 88 1011.0
20260506082007 57 267 3.0 8.0 0.00 0.00 0.00 88 1011.0
20260506081524 57 298 2.0 8.0 0.00 0.00 0.00 88 1011.0
20260506081007 57 331 1.0 8.0 0.00 0.00 0.00 88 1011.0
20260506080508 57 352 2.0 8.0 0.00 0.00 0.00 88 1011.0
20260506073507 57 310 2.0 9.0 0.00 0.00 0.00 87 1011.1
20260506073028 57 297 2.0 9.0 0.00 0.00 0.00 87 1011.1
20260506072513 57 325 3.0 8.0 0.00 0.00 0.00 87 1011.1
20260506072006 57 338 3.0 8.0 0.00 0.00 0.00 86 1011.0
20260506071519 57 333 1.0 8.0 0.00 0.00 0.00 86 1011.0
20260506071007 57 272 2.0 8.0 0.00 0.00 0.00 86 1010.9
20260506070507 57 331 1.0 7.0 0.00 0.00 0.00 86 1010.9
20260506062502 58 14 2.0 8.0 0.00 0.00 0.00 84 1010.9
20260506062004 58 273 2.0 8.0 0.00 0.00 0.00 84 1010.9
20260506061538 58 296 3.0 10.0 0.00 0.00 0.00 84 1011.0
20260506061004 58 261 1.0 11.0 0.00 0.00 0.00 84 1011.0
20260506060504 58 273 2.0 11.0 0.00 0.00 0.00 84 1011.0
20260506051004 60 13 2.0 10.0 0.00 0.00 0.00 81 1011.5
20260506050506 60 285 4.0 10.0 0.00 0.00 0.00 81 1011.5
20260506045008 60 250 1.0 9.0 0.00 0.00 0.00 80 1011.5
20260506044524 60 326 2.0 9.0 0.00 0.00 0.00 80 1011.6
20260506044007 60 15 3.0 9.0 0.00 0.00 0.00 80 1011.6
20260506043503 60 9 2.0 9.0 0.00 0.00 0.00 79 1011.7
20260506043034 60 344 1.0 10.0 0.00 0.00 0.00 79 1011.5
20260506042506 60 250 2.0 10.0 0.00 0.00 0.00 79 1011.6
20260506042003 60 332 2.0 8.0 0.00 0.00 0.00 78 1011.6
20260506041511 60 351 2.0 8.0 0.00 0.00 0.00 78 1011.6
20260506041003 60 244 2.0 13.0 0.00 0.00 0.00 77 1011.6
20260506040503 61 327 5.0 13.0 0.00 0.00 0.00 77 1011.6
20260506040009 61 318 4.0 13.0 0.00 0.00 0.00 77 1011.6
20260506035504 60 350 2.0 12.0 0.00 0.00 0.00 77 1011.6
20260506035011 60 327 3.0 10.0 0.00 0.00 0.00 76 1011.5
20260506034524 61 217 3.0 11.0 0.00 0.00 0.00 75 1011.6
20260506034004 61 41 3.0 12.0 0.00 0.00 0.00 75 1011.5
20260506033507 61 9 4.0 12.0 0.00 0.00 0.00 75 1011.6
20260506033023 61 292 2.0 12.0 0.00 0.00 0.00 75 1011.5
20260506032509 61 259 2.0 12.0 0.00 0.00 0.00 74 1011.5
20260506032008 61 284 2.0 9.0 0.00 0.00 0.00 74 1011.3
20260506031521 61 335 4.0 15.0 0.00 0.00 0.00 74 1011.4
20260506031011 61 300 5.0 15.0 0.00 0.00 0.00 74 1011.4
20260506030505 60 352 2.0 8.0 0.00 0.00 0.00 74 1011.4
20260506030018 60 346 1.0 8.0 0.00 0.00 0.00 75 1011.4
20260506025503 60 327 1.0 9.0 0.00 0.00 0.00 75 1011.3
20260506025003 60 171 3.0 9.0 0.00 0.00 0.00 74 1011.2
20260506024532 60 333 2.0 6.0 0.00 0.00 0.00 74 1011.3
20260506024007 60 304 2.0 8.0 0.00 0.00 0.00 75 1011.3
20260506023508 60 313 2.0 11.0 0.00 0.00 0.00 74 1011.2
20260506023020 60 5 3.0 11.0 0.00 0.00 0.00 74 1011.2
20260506022505 60 324 2.0 10.0 0.00 0.00 0.00 74 1011.2
20260506022008 61 30 4.0 10.0 0.00 0.00 0.00 74 1011.2
20260506021524 60 33 3.0 9.0 0.00 0.00 0.00 74 1011.3
20260506021004 60 252 2.0 10.0 0.00 0.00 0.00 74 1011.2
20260506020507 61 298 3.0 10.0 0.00 0.00 0.00 74 1011.2
20260506020023 60 223 1.0 9.0 0.00 0.00 0.00 74 1011.1
20260506015509 60 10 3.0 9.0 0.00 0.00 0.00 74 1011.2
20260506015006 60 262 2.0 9.0 0.00 0.00 0.00 74 1011.1
20260506014525 60 17 2.0 12.0 0.00 0.00 0.00 74 1011.1
20260506014003 60 49 3.0 12.0 0.00 0.00 0.00 74 1011.1
20260506013503 60 349 3.0 8.0 0.00 0.00 0.00 74 1011.0
20260506013019 60 349 2.0 8.0 0.00 0.00 0.00 74 1010.9
20260506012507 60 56 1.0 10.0 0.00 0.00 0.00 74 1010.9
20260506012010 60 317 2.0 12.0 0.00 0.00 0.00 74 1010.8
20260506011514 60 209 3.0 12.0 0.00 0.00 0.00 74 1010.8
20260506011011 60 5 2.0 8.0 0.00 0.00 0.00 74 1010.7
20260506010508 60 259 2.0 8.0 0.00 0.00 0.00 74 1010.7
20260506010024 60 297 3.0 7.0 0.00 0.00 0.00 73 1010.7
20260506005507 60 223 2.0 7.0 0.00 0.00 0.00 73 1010.6
20260506005002 60 13 1.0 8.0 0.00 0.00 0.00 73 1010.5
20260506004508 60 339 2.0 8.0 0.00 0.00 0.00 73 1010.5
20260506004004 60 319 2.0 10.0 0.00 0.00 0.00 72 1010.4
20260506003502 60 334 2.0 10.0 0.00 0.00 0.00 72 1010.5
20260506003008 61 322 1.0 8.0 0.00 0.00 0.00 72 1010.4
20260506002503 61 313 3.0 10.0 0.00 0.00 0.00 72 1010.3
20260506002008 61 323 2.0 10.0 0.00 0.00 0.00 71 1010.3
20260506001503 61 273 2.0 8.0 0.00 0.00 0.00 71 1010.0
20260506001003 61 244 2.0 7.0 0.00 0.00 0.00 71 1009.9
20260506000505 61 317 1.0 6.0 0.00 0.00 0.00 71 1009.8
20260506000007 62 127 1.0 8.0 0.00 0.00 0.00 71 1009.8
20260505235503 62 344 2.0 8.0 0.00 0.00 0.00 71 1009.7
20260505235003 62 327 2.0 8.0 0.00 0.00 0.00 70 1009.7
20260505234507 62 11 3.0 8.0 0.00 0.00 0.00 70 1009.7
20260505234004 62 36 2.0 8.0 0.00 0.00 0.00 71 1009.5
20260505233503 62 275 2.0 8.0 0.00 0.00 0.00 71 1009.5
20260505233008 62 271 3.0 8.0 0.00 0.00 0.00 70 1009.4
20260505232507 63 335 1.0 8.0 0.00 0.00 0.00 70 1009.4
20260505232003 63 26 2.0 8.0 0.00 0.00 0.00 69 1009.3
20260505231508 63 348 2.0 9.0 0.00 0.00 0.00 69 1009.1
20260505231008 64 338 3.0 9.0 0.00 0.00 0.00 68 1009.1
20260505230505 64 305 3.0 10.0 0.00 0.00 0.00 67 1008.9
20260505230008 65 287 5.0 10.0 0.00 0.00 0.00 66 1008.8
20260505225505 65 26 1.0 11.0 0.00 0.00 0.00 66 1008.7
20260505225007 66 14 6.0 11.0 0.00 0.00 0.00 65 1008.8
20260505224504 66 262 2.0 10.0 0.00 0.00 0.00 65 1008.7
20260505224003 67 5 2.0 10.0 0.00 0.00 0.00 64 1008.7
20260505223503 67 192 1.0 12.0 0.00 0.00 0.00 64 1008.7
20260505223005 67 157 3.0 12.0 0.00 0.00 0.00 64 1008.8
20260505222502 67 9 3.0 14.0 0.00 0.00 0.00 63 1008.8
20260505222002 68 40 1.0 14.0 0.00 0.00 0.00 62 1008.8
20260505221511 68 343 4.0 13.0 0.00 0.00 0.00 61 1008.8
20260505221003 69 296 2.0 12.0 0.00 0.00 0.00 60 1008.7
20260505220503 69 124 3.0 12.0 0.00 0.00 0.00 58 1008.7
20260505220016 70 278 3.0 13.0 0.00 0.00 0.00 59 1008.6
20260505215506 70 339 5.0 13.0 0.00 0.00 0.00 59 1008.6
20260505215004 70 36 5.0 11.0 0.00 0.00 0.00 58 1008.6
20260505214518 70 34 2.0 8.0 0.00 0.00 0.00 59 1008.5
20260505214003 70 67 3.0 13.0 0.00 0.00 0.00 58 1008.5
20260505213507 71 236 4.0 13.0 0.00 0.00 0.00 56 1008.5
20260505213009 72 259 2.0 11.0 0.00 0.00 0.00 56 1008.5
20260505212503 72 42 2.0 11.0 0.00 0.00 0.00 57 1008.4
20260505212003 72 175 1.0 10.0 0.00 0.00 0.00 55 1008.4
20260505211525 72 20 3.0 12.0 0.00 0.00 0.00 56 1008.3
20260505211002 73 248 3.0 12.0 0.00 0.00 0.00 55 1008.3
20260505210508 73 321 2.0 9.0 0.00 0.00 0.00 56 1008.3
20260505210012 73 9 2.0 15.0 0.00 0.00 0.00 55 1008.4
20260505205503 73 244 4.0 15.0 0.00 0.00 0.00 56 1008.4
20260505205006 73 346 3.0 10.0 0.00 0.00 0.00 55 1008.4
20260505204517 74 330 5.0 10.0 0.00 0.00 0.00 54 1008.5
20260505204008 74 244 3.0 9.0 0.00 0.00 0.00 55 1008.3
20260505203504 75 340 3.0 9.0 0.00 0.00 0.00 53 1008.3
20260505203018 75 39 4.0 10.0 0.00 0.00 0.00 54 1008.5
20260505202507 75 314 2.0 13.0 0.00 0.00 0.00 53 1008.5
20260505202011 74 329 1.0 13.0 0.00 0.00 0.00 56 1008.3
20260505201514 75 243 3.0 12.0 0.00 0.00 0.00 55 1008.5
20260505201007 75 348 4.0 10.0 0.00 0.00 0.00 55 1008.5
20260505200508 75 333 3.0 13.0 0.00 0.00 0.00 54 1008.6
20260505200011 75 315 3.0 14.0 0.00 0.00 0.00 56 1008.5
20260505195505 76 360 3.0 14.0 0.00 0.00 0.00 55 1008.5
20260505195006 76 336 4.0 13.0 0.00 0.00 0.00 55 1008.3
20260505194512 76 5 6.0 13.0 0.00 0.00 0.00 55 1008.3
20260505194003 76 226 2.0 11.0 0.00 0.00 0.00 53 1008.4
20260505193508 75 328 4.0 17.0 0.00 0.00 0.00 54 1008.4
20260505193018 76 151 2.0 17.0 0.00 0.00 0.00 53 1008.3
20260505192511 76 265 4.0 12.0 0.00 0.00 0.00 53 1008.4
20260505192006 75 5 5.0 16.0 0.00 0.00 0.00 54 1008.4
20260505191522 76 249 6.0 16.0 0.00 0.00 0.00 52 1008.4
20260505191007 77 320 3.0 14.0 0.00 0.00 0.00 53 1008.5
20260505190503 76 242 4.0 14.0 0.00 0.00 0.00 53 1008.5
20260505190026 77 222 6.0 19.0 0.00 0.00 0.00 52 1008.5
20260505185510 77 250 4.0 19.0 0.00 0.00 0.00 52 1008.4
20260505185010 77 350 3.0 11.0 0.00 0.00 0.00 55 1008.3
20260505184514 78 215 5.0 11.0 0.00 0.00 0.00 48 1008.5
20260505184003 78 315 2.0 16.0 0.00 0.00 0.00 52 1008.3
20260505183503 77 236 3.0 16.0 0.00 0.00 0.00 53 1008.4
20260505183027 78 352 6.0 15.0 0.00 0.00 0.00 51 1008.5